Time,TemperatureF,DewpointF,PressureIn,WindDirection,WindDirectionDegrees,WindSpeedMPH,WindSpeedGustMPH,Humidity,HourlyPrecipIn,Conditions,Clouds,dailyrainin,SoftwareType,DateUTC
2013-02-25 00:00:00,33.1,21.5,30.15,ENE,74,0.0,8.0,62,0.00,,,0.00,VWS V14.01,2013-02-25 05:00:00,
2013-02-25 00:02:00,33.1,21.5,30.15,ENE,74,0.0,8.0,62,0.00,,,0.00,VWS V14.01,2013-02-25 05:02:00,
2013-02-25 00:07:00,32.9,21.3,30.15,ENE,76,3.0,8.0,62,0.00,,,0.00,VWS V14.01,2013-02-25 05:07:00,
2013-02-25 00:10:00,32.9,21.3,30.15,ENE,67,0.0,8.0,62,0.00,,,0.00,VWS V14.01,2013-02-25 05:10:00,
2013-02-25 00:12:00,32.8,21.6,30.15,ENE,57,2.0,8.0,63,0.00,,,0.00,VWS V14.01,2013-02-25 05:12:00,
2013-02-25 00:17:00,32.7,21.5,30.15,ENE,60,4.0,8.0,63,0.00,,,0.00,VWS V14.01,2013-02-25 05:17:00,
2013-02-25 00:20:00,32.7,21.5,30.15,ENE,78,3.0,8.0,63,0.00,,,0.00,VWS V14.01,2013-02-25 05:20:00,
2013-02-25 00:22:00,32.7,21.5,30.15,ENE,76,2.0,8.0,63,0.00,,,0.00,VWS V14.01,2013-02-25 05:22:00,
2013-02-25 00:27:00,32.5,21.7,30.15,ENE,67,3.0,8.0,64,0.00,,,0.00,VWS V14.01,2013-02-25 05:27:00,
2013-02-25 00:30:00,32.4,21.6,30.15,ENE,71,5.0,8.0,64,0.00,,,0.00,VWS V14.01,2013-02-25 05:30:00,
2013-02-25 00:32:00,32.2,21.4,30.15,ENE,66,2.0,8.0,64,0.00,,,0.00,VWS V14.01,2013-02-25 05:32:00,
2013-02-25 00:37:00,32.1,21.7,30.15,East,80,2.0,8.0,65,0.00,,,0.00,VWS V14.01,2013-02-25 05:37:00,
2013-02-25 00:40:00,31.9,21.5,30.15,ENE,67,2.0,8.0,65,0.00,,,0.00,VWS V14.01,2013-02-25 05:40:00,
2013-02-25 00:42:00,31.9,21.5,30.15,ENE,59,1.0,8.0,65,0.00,,,0.00,VWS V14.01,2013-02-25 05:42:00,
2013-02-25 00:47:00,31.6,21.6,30.15,ENE,71,4.0,8.0,66,0.00,,,0.00,VWS V14.01,2013-02-25 05:47:00,
2013-02-25 00:50:00,31.6,21.6,30.15,ENE,75,3.0,8.0,66,0.00,,,0.00,VWS V14.01,2013-02-25 05:50:00,
2013-02-25 00:52:00,31.5,21.5,30.15,East,86,3.0,8.0,66,0.00,,,0.00,VWS V14.01,2013-02-25 05:52:00,
2013-02-25 00:57:00,31.3,21.3,30.15,ENE,67,2.0,8.0,66,0.00,,,0.00,VWS V14.01,2013-02-25 05:57:00,
2013-02-25 01:00:00,31.3,21.3,30.15,ENE,67,0.0,8.0,66,0.00,,,0.00,VWS V14.01,2013-02-25 06:00:00,
2013-02-25 01:02:00,31.2,21.2,30.15,ENE,74,5.0,8.0,66,0.00,,,0.00,VWS V14.01,2013-02-25 06:02:00,
2013-02-25 01:07:00,31.0,21.3,30.15,ENE,74,3.0,8.0,67,0.00,,,0.00,VWS V14.01,2013-02-25 06:07:00,
2013-02-25 01:10:00,31.0,21.3,30.15,ENE,69,0.0,8.0,67,0.00,,,0.00,VWS V14.01,2013-02-25 06:10:00,
2013-02-25 01:12:00,30.9,21.2,30.15,ENE,71,2.0,8.0,67,0.00,,,0.00,VWS V14.01,2013-02-25 06:12:00,
2013-02-25 01:17:00,30.7,21.4,30.15,ENE,69,3.0,8.0,68,0.00,,,0.00,VWS V14.01,2013-02-25 06:17:00,
2013-02-25 01:20:00,30.7,21.4,30.15,ENE,69,3.0,8.0,68,0.00,,,0.00,VWS V14.01,2013-02-25 06:20:00,
2013-02-25 01:22:00,30.7,21.4,30.15,ENE,61,5.0,8.0,68,0.00,,,0.00,VWS V14.01,2013-02-25 06:22:00,
2013-02-25 01:27:00,30.6,21.3,30.15,ENE,78,5.0,8.0,68,0.00,,,0.00,VWS V14.01,2013-02-25 06:27:00,
2013-02-25 01:30:00,30.6,21.3,30.14,East,86,5.0,8.0,68,0.00,,,0.00,VWS V14.01,2013-02-25 06:30:00,
2013-02-25 01:32:00,30.6,21.3,30.14,ENE,74,2.0,8.0,68,0.00,,,0.00,VWS V14.01,2013-02-25 06:32:00,
2013-02-25 01:37:00,30.4,21.1,30.14,ENE,65,0.0,8.0,68,0.00,,,0.00,VWS V14.01,2013-02-25 06:37:00,
2013-02-25 01:40:00,30.3,21.0,30.14,ENE,73,8.0,8.0,68,0.00,,,0.00,VWS V14.01,2013-02-25 06:40:00,
2013-02-25 01:42:00,30.4,21.1,30.14,East,79,1.0,8.0,68,0.00,,,0.00,VWS V14.01,2013-02-25 06:42:00,
2013-02-25 01:48:00,30.3,21.4,30.14,East,85,5.0,8.0,69,0.00,,,0.00,VWS V14.01,2013-02-25 06:48:00,
2013-02-25 01:50:00,30.1,21.2,30.14,ENE,73,1.0,8.0,69,0.00,,,0.00,VWS V14.01,2013-02-25 06:50:00,
2013-02-25 01:53:00,30.1,21.2,30.14,East,79,3.0,8.0,69,0.00,,,0.00,VWS V14.01,2013-02-25 06:53:00,
2013-02-25 01:58:00,30.0,21.1,30.14,ENE,68,3.0,8.0,69,0.00,,,0.00,VWS V14.01,2013-02-25 06:58:00,
2013-02-25 02:00:00,30.0,21.1,30.15,ENE,76,0.0,8.0,69,0.00,,,0.00,VWS V14.01,2013-02-25 07:00:00,
2013-02-25 02:03:00,29.8,21.2,30.15,ENE,72,2.0,8.0,70,0.00,,,0.00,VWS V14.01,2013-02-25 07:03:00,
2013-02-25 02:08:00,29.8,21.2,30.15,ENE,75,3.0,8.0,70,0.00,,,0.00,VWS V14.01,2013-02-25 07:08:00,
2013-02-25 02:10:00,29.7,21.1,30.15,East,79,5.0,8.0,70,0.00,,,0.00,VWS V14.01,2013-02-25 07:10:00,
2013-02-25 02:13:00,29.7,21.1,30.15,East,82,3.0,8.0,70,0.00,,,0.00,VWS V14.01,2013-02-25 07:13:00,
2013-02-25 02:18:00,29.5,21.3,30.14,East,86,2.0,8.0,71,0.00,,,0.00,VWS V14.01,2013-02-25 07:18:00,
2013-02-25 02:20:00,29.5,21.3,30.14,East,79,1.0,8.0,71,0.00,,,0.00,VWS V14.01,2013-02-25 07:20:00,
2013-02-25 02:23:00,29.5,21.3,30.14,East,85,2.0,8.0,71,0.00,,,0.00,VWS V14.01,2013-02-25 07:23:00,
2013-02-25 02:28:00,29.4,21.2,30.14,East,91,5.0,8.0,71,0.00,,,0.00,VWS V14.01,2013-02-25 07:28:00,
2013-02-25 02:30:00,29.4,21.2,30.15,ESE,109,1.0,8.0,71,0.00,,,0.00,VWS V14.01,2013-02-25 07:30:00,
2013-02-25 02:33:00,29.4,21.2,30.15,ENE,66,7.0,8.0,71,0.00,,,0.00,VWS V14.01,2013-02-25 07:33:00,
2013-02-25 02:38:00,29.4,21.2,30.15,East,84,2.0,8.0,71,0.00,,,0.00,VWS V14.01,2013-02-25 07:38:00,
2013-02-25 02:40:00,29.4,21.2,30.15,East,84,2.0,8.0,71,0.00,,,0.00,VWS V14.01,2013-02-25 07:40:00,
2013-02-25 02:43:00,29.4,21.2,30.15,East,86,1.0,8.0,71,0.00,,,0.00,VWS V14.01,2013-02-25 07:43:00,
2013-02-25 02:48:00,29.3,21.1,30.16,East,89,2.0,8.0,71,0.00,,,0.00,VWS V14.01,2013-02-25 07:48:00,
2013-02-25 02:50:00,29.3,21.1,30.16,East,88,0.0,8.0,71,0.00,,,0.00,VWS V14.01,2013-02-25 07:50:00,
2013-02-25 02:53:00,29.3,21.1,30.16,ENE,75,1.0,8.0,71,0.00,,,0.00,VWS V14.01,2013-02-25 07:53:00,
2013-02-25 02:58:00,29.1,20.9,30.16,ENE,76,3.0,8.0,71,0.00,,,0.00,VWS V14.01,2013-02-25 07:58:00,
2013-02-25 03:00:00,29.1,20.9,30.16,ENE,60,4.0,8.0,71,0.00,,,0.00,VWS V14.01,2013-02-25 08:00:00,
2013-02-25 03:03:00,29.1,20.9,30.16,ENE,67,4.0,8.0,71,0.00,,,0.00,VWS V14.01,2013-02-25 08:03:00,
2013-02-25 03:08:00,29.0,20.8,30.16,East,89,3.0,8.0,71,0.00,,,0.00,VWS V14.01,2013-02-25 08:08:00,
2013-02-25 03:10:00,29.0,20.8,30.16,East,82,5.0,8.0,71,0.00,,,0.00,VWS V14.01,2013-02-25 08:10:00,
2013-02-25 03:13:00,29.0,20.8,30.16,ENE,68,4.0,8.0,71,0.00,,,0.00,VWS V14.01,2013-02-25 08:13:00,
2013-02-25 03:18:00,29.0,20.8,30.15,East,90,6.0,8.0,71,0.00,,,0.00,VWS V14.01,2013-02-25 08:18:00,
2013-02-25 03:23:00,28.8,20.6,30.15,ENE,78,4.0,8.0,71,0.00,,,0.00,VWS V14.01,2013-02-25 08:23:00,
2013-02-25 03:38:00,28.8,20.6,30.15,East,82,7.0,8.0,71,0.00,,,0.00,VWS V14.01,2013-02-25 08:38:00,
2013-02-25 04:25:00,29.0,20.8,30.15,ENE,72,3.0,8.0,71,0.00,,,0.00,VWS V14.01,2013-02-25 09:25:00,
2013-02-25 04:33:00,28.8,20.6,30.15,East,89,6.0,8.0,71,0.00,,,0.00,VWS V14.01,2013-02-25 09:33:00,
2013-02-25 04:38:00,28.8,20.6,30.15,ENE,73,5.0,8.0,71,0.00,,,0.00,VWS V14.01,2013-02-25 09:38:00,
2013-02-25 04:45:00,28.8,20.3,30.15,East,84,3.0,8.0,70,0.00,,,0.00,VWS V14.01,2013-02-25 09:45:00,
2013-02-25 04:54:00,28.7,20.2,30.15,East,86,6.0,8.0,70,0.00,,,0.00,VWS V14.01,2013-02-25 09:54:00,
2013-02-25 04:59:00,28.7,20.2,30.15,ENE,74,5.0,8.0,70,0.00,,,0.00,VWS V14.01,2013-02-25 09:59:00,
2013-02-25 05:04:00,28.7,20.2,30.15,East,80,3.0,8.0,70,0.00,,,0.00,VWS V14.01,2013-02-25 10:04:00,
2013-02-25 05:09:00,28.5,20.0,30.15,ENE,57,2.0,8.0,70,0.00,,,0.00,VWS V14.01,2013-02-25 10:09:00,
2013-02-25 05:14:00,28.5,20.0,30.15,East,79,2.0,8.0,70,0.00,,,0.00,VWS V14.01,2013-02-25 10:14:00,
2013-02-25 05:19:00,28.5,20.0,30.15,East,84,0.0,8.0,70,0.00,,,0.00,VWS V14.01,2013-02-25 10:19:00,
2013-02-25 05:24:00,28.4,19.9,30.16,East,85,0.0,8.0,70,0.00,,,0.00,VWS V14.01,2013-02-25 10:24:00,
2013-02-25 05:29:00,28.4,19.9,30.16,East,79,0.0,8.0,70,0.00,,,0.00,VWS V14.01,2013-02-25 10:29:00,
2013-02-25 05:34:00,28.4,19.9,30.16,ENE,77,1.0,8.0,70,0.00,,,0.00,VWS V14.01,2013-02-25 10:34:00,
2013-02-25 05:39:00,28.4,19.9,30.18,ENE,76,2.0,8.0,70,0.00,,,0.00,VWS V14.01,2013-02-25 10:39:00,
2013-02-25 05:44:00,28.4,19.5,30.18,ENE,74,3.0,8.0,69,0.00,,,0.00,VWS V14.01,2013-02-25 10:44:00,
2013-02-25 05:49:00,28.2,19.4,30.18,East,83,3.0,8.0,69,0.00,,,0.00,VWS V14.01,2013-02-25 10:49:00,
2013-02-25 05:54:00,28.2,19.4,30.18,East,83,2.0,8.0,69,0.00,,,0.00,VWS V14.01,2013-02-25 10:54:00,
2013-02-25 05:59:00,28.2,19.4,30.18,ENE,76,2.0,8.0,69,0.00,,,0.00,VWS V14.01,2013-02-25 10:59:00,
2013-02-25 06:04:00,28.2,19.4,30.18,ENE,77,3.0,8.0,69,0.00,,,0.00,VWS V14.01,2013-02-25 11:04:00,
2013-02-25 06:09:00,28.2,19.4,30.18,East,82,2.0,8.0,69,0.00,,,0.00,VWS V14.01,2013-02-25 11:09:00,
2013-02-25 06:14:00,28.2,19.4,30.18,ENE,74,3.0,8.0,69,0.00,,,0.00,VWS V14.01,2013-02-25 11:14:00,
2013-02-25 06:19:00,28.2,19.4,30.17,East,81,3.0,8.0,69,0.00,,,0.00,VWS V14.01,2013-02-25 11:19:00,
2013-02-25 06:24:00,28.2,19.0,30.17,East,84,3.0,8.0,68,0.00,,,0.00,VWS V14.01,2013-02-25 11:24:00,
2013-02-25 06:29:00,28.4,19.2,30.17,ENE,63,4.0,8.0,68,0.00,,,0.00,VWS V14.01,2013-02-25 11:29:00,
2013-02-25 06:34:00,28.4,19.2,30.16,East,82,3.0,8.0,68,0.00,,,0.00,VWS V14.01,2013-02-25 11:34:00,
2013-02-25 06:39:00,28.4,19.2,30.16,ENE,62,3.0,8.0,68,0.00,,,0.00,VWS V14.01,2013-02-25 11:39:00,
2013-02-25 06:44:00,28.4,19.2,30.16,ENE,73,3.0,8.0,68,0.00,,,0.00,VWS V14.01,2013-02-25 11:44:00,
2013-02-25 06:49:00,28.4,19.2,30.16,ENE,69,4.0,8.0,68,0.00,,,0.00,VWS V14.01,2013-02-25 11:49:00,
2013-02-25 06:54:00,28.4,19.2,30.16,ENE,67,3.0,8.0,68,0.00,,,0.00,VWS V14.01,2013-02-25 11:54:00,
2013-02-25 06:59:00,28.2,19.0,30.16,ENE,60,3.0,8.0,68,0.00,,,0.00,VWS V14.01,2013-02-25 11:59:00,
2013-02-25 07:04:00,27.9,19.1,30.15,ENE,71,5.0,8.0,69,0.00,,,0.00,VWS V14.01,2013-02-25 12:04:00,
2013-02-25 07:10:00,27.9,19.1,30.15,East,88,3.0,8.0,69,0.00,,,0.00,VWS V14.01,2013-02-25 12:10:00,
2013-02-25 07:15:00,27.8,19.0,30.15,ENE,69,3.0,8.0,69,0.00,,,0.00,VWS V14.01,2013-02-25 12:15:00,
2013-02-25 07:20:00,27.6,18.8,30.15,ENE,78,3.0,8.0,69,0.00,,,0.00,VWS V14.01,2013-02-25 12:20:00,
2013-02-25 07:25:00,27.6,18.8,30.15,ENE,76,7.0,8.0,69,0.00,,,0.00,VWS V14.01,2013-02-25 12:25:00,
2013-02-25 07:30:00,27.5,18.7,30.15,NE,56,7.0,8.0,69,0.00,,,0.00,VWS V14.01,2013-02-25 12:30:00,
2013-02-25 07:35:00,27.5,18.7,30.16,East,84,3.0,8.0,69,0.00,,,0.00,VWS V14.01,2013-02-25 12:35:00,
2013-02-25 07:40:00,27.5,18.7,30.16,ENE,65,4.0,8.0,69,0.00,,,0.00,VWS V14.01,2013-02-25 12:40:00,
2013-02-25 07:45:00,27.5,18.7,30.16,ENE,74,2.0,8.0,69,0.00,,,0.00,VWS V14.01,2013-02-25 12:45:00,
2013-02-25 07:50:00,27.6,18.8,30.16,ENE,69,0.0,8.0,69,0.00,,,0.00,VWS V14.01,2013-02-25 12:50:00,
2013-02-25 07:55:00,27.6,18.8,30.16,East,82,2.0,8.0,69,0.00,,,0.00,VWS V14.01,2013-02-25 12:55:00,
2013-02-25 08:00:00,27.8,19.0,30.16,ENE,78,3.0,8.0,69,0.00,,,0.00,VWS V14.01,2013-02-25 13:00:00,
2013-02-25 08:05:00,28.1,18.9,30.17,East,82,2.0,8.0,68,0.00,,,0.00,VWS V14.01,2013-02-25 13:05:00,
2013-02-25 08:10:00,28.2,19.0,30.17,East,86,3.0,8.0,68,0.00,,,0.00,VWS V14.01,2013-02-25 13:10:00,
2013-02-25 08:15:00,28.4,18.9,30.17,ENE,76,7.0,8.0,67,0.00,,,0.00,VWS V14.01,2013-02-25 13:15:00,
2013-02-25 08:20:00,28.5,19.0,30.16,East,82,5.0,8.0,67,0.00,,,0.00,VWS V14.01,2013-02-25 13:20:00,
2013-02-25 08:25:00,28.7,19.1,30.16,East,96,5.0,8.0,67,0.00,,,0.00,VWS V14.01,2013-02-25 13:25:00,
2013-02-25 08:30:00,28.8,18.9,30.16,ESE,106,2.0,8.0,66,0.00,,,0.00,VWS V14.01,2013-02-25 13:30:00,
2013-02-25 08:35:00,29.1,18.8,30.17,ENE,73,4.0,8.0,65,0.00,,,0.00,VWS V14.01,2013-02-25 13:35:00,
2013-02-25 08:41:00,29.4,19.1,30.17,ESE,113,4.0,8.0,65,0.00,,,0.00,VWS V14.01,2013-02-25 13:41:00,
2013-02-25 08:46:00,29.7,19.0,30.17,ENE,71,5.0,8.0,64,0.00,,,0.00,VWS V14.01,2013-02-25 13:46:00,
2013-02-25 08:51:00,30.0,19.3,30.17,ENE,71,1.0,8.0,64,0.00,,,0.00,VWS V14.01,2013-02-25 13:51:00,
2013-02-25 08:56:00,30.3,19.6,30.17,ENE,72,4.0,8.0,64,0.00,,,0.00,VWS V14.01,2013-02-25 13:56:00,
2013-02-25 09:01:00,30.4,19.3,30.17,ENE,67,3.0,8.0,63,0.00,,,0.00,VWS V14.01,2013-02-25 14:01:00,
2013-02-25 09:06:00,30.6,19.5,30.17,ENE,62,4.0,8.0,63,0.00,,,0.00,VWS V14.01,2013-02-25 14:06:00,
2013-02-25 09:11:00,30.7,19.2,30.17,ENE,73,8.0,8.0,62,0.00,,,0.00,VWS V14.01,2013-02-25 14:11:00,
2013-02-25 09:16:00,30.9,19.4,30.17,ENE,67,4.0,8.0,62,0.00,,,0.00,VWS V14.01,2013-02-25 14:16:00,
2013-02-25 09:21:00,31.3,19.4,30.17,ENE,64,2.0,8.0,61,0.00,,,0.00,VWS V14.01,2013-02-25 14:21:00,
2013-02-25 09:26:00,31.8,19.1,30.17,East,86,2.0,8.0,59,0.00,,,0.00,VWS V14.01,2013-02-25 14:26:00,
2013-02-25 09:31:00,32.4,19.7,30.17,East,90,2.0,8.0,59,0.00,,,0.00,VWS V14.01,2013-02-25 14:31:00,
2013-02-25 09:36:00,32.9,19.4,30.18,East,96,3.0,8.0,57,0.00,,,0.00,VWS V14.01,2013-02-25 14:36:00,
2013-02-25 09:41:00,33.2,19.2,30.18,East,83,6.0,8.0,56,0.00,,,0.00,VWS V14.01,2013-02-25 14:41:00,
2013-02-25 09:46:00,33.5,19.1,30.18,ENE,67,8.0,8.0,55,0.00,,,0.00,VWS V14.01,2013-02-25 14:46:00,
2013-02-25 09:51:00,33.7,19.7,30.17,ENE,63,7.0,8.0,56,0.00,,,0.00,VWS V14.01,2013-02-25 14:51:00,
2013-02-25 09:56:00,34.1,19.6,30.17,East,100,6.0,8.0,55,0.00,,,0.00,VWS V14.01,2013-02-25 14:56:00,
2013-02-25 10:01:00,34.6,19.7,30.17,ENE,78,5.0,8.0,54,0.00,,,0.00,VWS V14.01,2013-02-25 15:01:00,
2013-02-25 10:06:00,35.0,20.0,30.17,ENE,77,3.0,8.0,54,0.00,,,0.00,VWS V14.01,2013-02-25 15:06:00,
2013-02-25 10:11:00,35.3,19.9,30.17,ENE,74,10.0,10.0,53,0.00,,,0.00,VWS V14.01,2013-02-25 15:11:00,
2013-02-25 10:16:00,35.3,20.3,30.17,East,81,10.0,10.0,54,0.00,,,0.00,VWS V14.01,2013-02-25 15:16:00,
2013-02-25 10:21:00,35.5,20.1,30.17,East,86,2.0,8.0,53,0.00,,,0.00,VWS V14.01,2013-02-25 15:21:00,
2013-02-25 10:26:00,36.0,20.5,30.17,ENE,65,7.0,8.0,53,0.00,,,0.00,VWS V14.01,2013-02-25 15:26:00,
2013-02-25 10:31:00,36.2,20.3,30.17,ENE,70,7.0,8.0,52,0.00,,,0.00,VWS V14.01,2013-02-25 15:31:00,
2013-02-25 10:36:00,35.8,19.9,30.16,East,88,6.0,8.0,52,0.00,,,0.00,VWS V14.01,2013-02-25 15:36:00,
2013-02-25 10:41:00,36.2,20.3,30.16,East,85,2.0,8.0,52,0.00,,,0.00,VWS V14.01,2013-02-25 15:41:00,
2013-02-25 10:46:00,37.5,21.0,30.16,East,83,6.0,8.0,51,0.00,,,0.00,VWS V14.01,2013-02-25 15:46:00,
2013-02-25 10:51:00,37.8,20.4,30.15,East,94,5.0,8.0,49,0.00,,,0.00,VWS V14.01,2013-02-25 15:51:00,
2013-02-25 10:56:00,38.3,21.3,30.15,ENE,78,5.0,8.0,50,0.00,,,0.00,VWS V14.01,2013-02-25 15:56:00,
2013-02-25 11:01:00,38.9,20.9,30.15,ENE,76,1.0,8.0,48,0.00,,,0.00,VWS V14.01,2013-02-25 16:01:00,
2013-02-25 11:06:00,39.5,21.9,30.15,ENE,59,5.0,8.0,49,0.00,,,0.00,VWS V14.01,2013-02-25 16:06:00,
2013-02-25 11:11:00,39.3,20.8,30.15,ENE,59,9.0,9.0,47,0.00,,,0.00,VWS V14.01,2013-02-25 16:11:00,
2013-02-25 11:16:00,39.3,20.8,30.15,ENE,75,12.0,12.0,47,0.00,,,0.00,VWS V14.01,2013-02-25 16:16:00,
2013-02-25 11:21:00,38.9,20.9,30.13,East,88,8.0,8.0,48,0.00,,,0.00,VWS V14.01,2013-02-25 16:21:00,
2013-02-25 11:26:00,39.1,20.6,30.13,East,92,10.0,10.0,47,0.00,,,0.00,VWS V14.01,2013-02-25 16:26:00,
2013-02-25 11:31:00,39.5,21.5,30.13,East,100,8.0,8.0,48,0.00,,,0.00,VWS V14.01,2013-02-25 16:31:00,
2013-02-25 11:37:00,40.2,21.6,30.13,ENE,64,3.0,8.0,47,0.00,,,0.00,VWS V14.01,2013-02-25 16:37:00,
2013-02-25 11:42:00,40.6,21.5,30.13,NE,36,4.0,8.0,46,0.00,,,0.00,VWS V14.01,2013-02-25 16:42:00,
2013-02-25 11:47:00,41.5,21.2,30.13,East,101,7.0,8.0,44,0.00,,,0.00,VWS V14.01,2013-02-25 16:47:00,
2013-02-25 11:52:00,41.2,22.0,30.13,ENE,64,1.0,8.0,46,0.00,,,0.00,VWS V14.01,2013-02-25 16:52:00,
2013-02-25 11:57:00,41.8,21.5,30.13,NE,48,4.0,8.0,44,0.00,,,0.00,VWS V14.01,2013-02-25 16:57:00,
2013-02-25 12:02:00,42.1,21.8,30.13,ENE,76,3.0,8.0,44,0.00,,,0.00,VWS V14.01,2013-02-25 17:02:00,
2013-02-25 12:07:00,42.2,21.3,30.12,East,91,5.0,8.0,43,0.00,,,0.00,VWS V14.01,2013-02-25 17:07:00,
2013-02-25 12:12:00,42.5,22.1,30.12,ENE,62,7.0,8.0,44,0.00,,,0.00,VWS V14.01,2013-02-25 17:12:00,
2013-02-25 12:17:00,42.3,21.4,30.12,ESE,107,8.0,8.0,43,0.00,,,0.00,VWS V14.01,2013-02-25 17:17:00,
2013-02-25 12:22:00,42.1,20.1,30.12,ENE,71,5.0,8.0,41,0.00,,,0.00,VWS V14.01,2013-02-25 17:22:00,
2013-02-25 12:27:00,42.1,21.8,30.12,East,84,8.0,8.0,44,0.00,,,0.00,VWS V14.01,2013-02-25 17:27:00,
2013-02-25 12:32:00,42.6,21.1,30.12,NNE,30,10.0,10.0,42,0.00,,,0.00,VWS V14.01,2013-02-25 17:32:00,
2013-02-25 12:37:00,42.8,21.3,30.11,NE,40,4.0,8.0,42,0.00,,,0.00,VWS V14.01,2013-02-25 17:37:00,
2013-02-25 12:42:00,42.9,20.8,30.11,East,88,6.0,8.0,41,0.00,,,0.00,VWS V14.01,2013-02-25 17:42:00,
2013-02-25 12:47:00,43.3,21.2,30.11,NE,47,3.0,8.0,41,0.00,,,0.00,VWS V14.01,2013-02-25 17:47:00,
2013-02-25 12:52:00,43.5,21.4,30.10,ENE,59,11.0,11.0,41,0.00,,,0.00,VWS V14.01,2013-02-25 17:52:00,
2013-02-25 12:57:00,43.2,21.1,30.10,NE,36,4.0,8.0,41,0.00,,,0.00,VWS V14.01,2013-02-25 17:57:00,
2013-02-25 13:02:00,43.9,21.2,30.10,NE,44,6.0,8.0,40,0.00,,,0.00,VWS V14.01,2013-02-25 18:02:00,
2013-02-25 13:07:00,44.3,22.1,30.09,NE,41,5.0,8.0,41,0.00,,,0.00,VWS V14.01,2013-02-25 18:07:00,
2013-02-25 13:12:00,44.5,22.3,30.09,NE,48,5.0,8.0,41,0.00,,,0.00,VWS V14.01,2013-02-25 18:12:00,
2013-02-25 13:17:00,44.2,21.4,30.09,NE,55,6.0,8.0,40,0.00,,,0.00,VWS V14.01,2013-02-25 18:17:00,
2013-02-25 13:22:00,44.3,22.1,30.08,East,81,6.0,8.0,41,0.00,,,0.00,VWS V14.01,2013-02-25 18:22:00,
2013-02-25 13:27:00,44.1,22.5,30.08,ENE,72,8.0,8.0,42,0.00,,,0.00,VWS V14.01,2013-02-25 18:27:00,
2013-02-25 13:32:00,44.2,22.0,30.08,NNE,29,3.0,8.0,41,0.00,,,0.00,VWS V14.01,2013-02-25 18:32:00,
2013-02-25 13:37:00,44.5,21.1,30.07,ESE,106,4.0,8.0,39,0.00,,,0.00,VWS V14.01,2013-02-25 18:37:00,
2013-02-25 13:42:00,44.5,22.3,30.07,NE,53,9.0,9.0,41,0.00,,,0.00,VWS V14.01,2013-02-25 18:42:00,
2013-02-25 13:47:00,44.9,22.1,30.07,ENE,70,2.0,8.0,40,0.00,,,0.00,VWS V14.01,2013-02-25 18:47:00,
2013-02-25 13:52:00,45.2,22.3,30.06,North,360,7.0,8.0,40,0.00,,,0.00,VWS V14.01,2013-02-25 18:52:00,
2013-02-25 13:57:00,45.5,21.4,30.06,NE,56,10.0,10.0,38,0.00,,,0.00,VWS V14.01,2013-02-25 18:57:00,
2013-02-25 14:02:00,45.5,21.4,30.06,NNE,12,11.0,11.0,38,0.00,,,0.00,VWS V14.01,2013-02-25 19:02:00,
2013-02-25 14:07:00,45.2,22.3,30.05,ENE,59,8.0,8.0,40,0.00,,,0.00,VWS V14.01,2013-02-25 19:07:00,
2013-02-25 14:12:00,45.5,22.6,30.05,ENE,62,10.0,10.0,40,0.00,,,0.00,VWS V14.01,2013-02-25 19:12:00,
2013-02-25 14:17:00,45.5,22.6,30.05,East,96,3.0,8.0,40,0.00,,,0.00,VWS V14.01,2013-02-25 19:17:00,
2013-02-25 14:22:00,46.0,21.8,30.05,NE,44,4.0,8.0,38,0.00,,,0.00,VWS V14.01,2013-02-25 19:22:00,
2013-02-25 14:27:00,45.8,21.6,30.05,East,89,5.0,8.0,38,0.00,,,0.00,VWS V14.01,2013-02-25 19:27:00,
2013-02-25 14:32:00,45.8,21.6,30.05,East,88,9.0,9.0,38,0.00,,,0.00,VWS V14.01,2013-02-25 19:32:00,
2013-02-25 14:37:00,45.8,21.0,30.03,ENE,67,8.0,8.0,37,0.00,,,0.00,VWS V14.01,2013-02-25 19:37:00,
2013-02-25 14:43:00,46.0,21.2,30.03,ENE,69,5.0,8.0,37,0.00,,,0.00,VWS V14.01,2013-02-25 19:43:00,
2013-02-25 14:48:00,45.8,21.6,30.03,ENE,67,5.0,8.0,38,0.00,,,0.00,VWS V14.01,2013-02-25 19:48:00,
2013-02-25 14:53:00,46.5,22.3,30.02,ENE,63,7.0,8.0,38,0.00,,,0.00,VWS V14.01,2013-02-25 19:53:00,
2013-02-25 14:58:00,46.4,22.2,30.02,East,81,7.0,8.0,38,0.00,,,0.00,VWS V14.01,2013-02-25 19:58:00,
2013-02-25 15:03:00,46.5,21.6,30.02,ENE,61,7.0,8.0,37,0.00,,,0.00,VWS V14.01,2013-02-25 20:03:00,
2013-02-25 15:08:00,46.7,22.5,30.02,ENE,78,5.0,8.0,38,0.00,,,0.00,VWS V14.01,2013-02-25 20:08:00,
2013-02-25 15:13:00,46.7,21.8,30.02,NE,53,2.0,8.0,37,0.00,,,0.00,VWS V14.01,2013-02-25 20:13:00,
2013-02-25 15:18:00,46.7,21.8,30.02,ENE,67,4.0,8.0,37,0.00,,,0.00,VWS V14.01,2013-02-25 20:18:00,
2013-02-25 15:23:00,46.8,21.9,30.01,ENE,57,7.0,8.0,37,0.00,,,0.00,VWS V14.01,2013-02-25 20:23:00,
2013-02-25 15:28:00,46.5,22.3,30.01,East,82,2.0,8.0,38,0.00,,,0.00,VWS V14.01,2013-02-25 20:28:00,
2013-02-25 15:33:00,46.5,22.3,30.01,NE,34,7.0,8.0,38,0.00,,,0.00,VWS V14.01,2013-02-25 20:33:00,
2013-02-25 15:38:00,46.5,22.3,30.00,ENE,61,10.0,10.0,38,0.00,,,0.00,VWS V14.01,2013-02-25 20:38:00,
2013-02-25 15:43:00,46.8,22.5,30.00,NE,40,7.0,8.0,38,0.00,,,0.00,VWS V14.01,2013-02-25 20:43:00,
2013-02-25 15:48:00,47.1,22.2,30.00,ENE,68,7.0,8.0,37,0.00,,,0.00,VWS V14.01,2013-02-25 20:48:00,
2013-02-25 15:53:00,47.3,22.4,30.01,ENE,72,9.0,9.0,37,0.00,,,0.00,VWS V14.01,2013-02-25 20:53:00,
2013-02-25 15:58:00,47.1,22.2,30.01,ENE,57,4.0,8.0,37,0.00,,,0.00,VWS V14.01,2013-02-25 20:58:00,
2013-02-25 16:03:00,47.6,23.3,30.01,East,81,5.0,8.0,38,0.00,,,0.00,VWS V14.01,2013-02-25 21:03:00,
2013-02-25 16:08:00,47.6,21.3,30.00,ENE,69,5.0,8.0,35,0.00,,,0.00,VWS V14.01,2013-02-25 21:08:00,
2013-02-25 16:13:00,47.4,21.8,30.00,ENE,77,8.0,8.0,36,0.00,,,0.00,VWS V14.01,2013-02-25 21:13:00,
2013-02-25 16:18:00,47.4,21.8,30.00,ENE,58,5.0,8.0,36,0.00,,,0.00,VWS V14.01,2013-02-25 21:18:00,
2013-02-25 16:23:00,47.9,22.2,30.00,NE,49,2.0,8.0,36,0.00,,,0.00,VWS V14.01,2013-02-25 21:23:00,
2013-02-25 16:28:00,48.0,21.7,30.00,ENE,76,8.0,8.0,35,0.00,,,0.00,VWS V14.01,2013-02-25 21:28:00,
2013-02-25 16:33:00,47.7,21.4,30.00,ENE,78,4.0,8.0,35,0.00,,,0.00,VWS V14.01,2013-02-25 21:33:00,
2013-02-25 16:38:00,47.7,22.7,30.00,NE,34,5.0,8.0,37,0.00,,,0.00,VWS V14.01,2013-02-25 21:38:00,
2013-02-25 16:43:00,47.9,22.2,30.00,ENE,74,4.0,8.0,36,0.00,,,0.00,VWS V14.01,2013-02-25 21:43:00,
2013-02-25 16:48:00,48.0,21.7,30.00,ENE,67,5.0,8.0,35,0.00,,,0.00,VWS V14.01,2013-02-25 21:48:00,
2013-02-25 16:53:00,48.0,22.3,30.00,ENE,77,4.0,8.0,36,0.00,,,0.00,VWS V14.01,2013-02-25 21:53:00,
2013-02-25 16:58:00,47.7,21.4,30.00,ENE,59,9.0,9.0,35,0.00,,,0.00,VWS V14.01,2013-02-25 21:58:00,
2013-02-25 17:03:00,47.6,21.3,30.00,East,79,7.0,8.0,35,0.00,,,0.00,VWS V14.01,2013-02-25 22:03:00,
2013-02-25 17:08:00,47.3,21.7,30.00,ENE,71,4.0,8.0,36,0.00,,,0.00,VWS V14.01,2013-02-25 22:08:00,
2013-02-25 17:13:00,47.1,21.5,30.00,ENE,57,4.0,8.0,36,0.00,,,0.00,VWS V14.01,2013-02-25 22:13:00,
2013-02-25 17:18:00,47.1,21.5,30.00,ENE,74,4.0,8.0,36,0.00,,,0.00,VWS V14.01,2013-02-25 22:18:00,
2013-02-25 17:23:00,47.1,21.5,29.99,ENE,58,4.0,8.0,36,0.00,,,0.00,VWS V14.01,2013-02-25 22:23:00,
2013-02-25 17:28:00,47.1,21.5,29.99,ENE,57,3.0,8.0,36,0.00,,,0.00,VWS V14.01,2013-02-25 22:28:00,
2013-02-25 17:33:00,47.1,20.9,29.99,NE,51,0.0,8.0,35,0.00,,,0.00,VWS V14.01,2013-02-25 22:33:00,
2013-02-25 17:38:00,47.1,20.9,29.99,ENE,73,3.0,8.0,35,0.00,,,0.00,VWS V14.01,2013-02-25 22:38:00,
2013-02-25 17:43:00,47.0,20.8,29.99,ENE,78,7.0,8.0,35,0.00,,,0.00,VWS V14.01,2013-02-25 22:43:00,
2013-02-25 17:48:00,46.8,21.3,29.99,ENE,74,5.0,8.0,36,0.00,,,0.00,VWS V14.01,2013-02-25 22:48:00,
2013-02-25 17:53:00,46.7,20.5,29.97,NE,46,6.0,8.0,35,0.00,,,0.00,VWS V14.01,2013-02-25 22:53:00,
2013-02-25 17:58:00,46.5,20.3,29.97,NE,40,9.0,9.0,35,0.00,,,0.00,VWS V14.01,2013-02-25 22:58:00,
2013-02-25 18:03:00,46.4,20.9,29.97,ENE,65,5.0,8.0,36,0.00,,,0.00,VWS V14.01,2013-02-25 23:03:00,
2013-02-25 18:08:00,46.1,20.0,29.97,East,80,6.0,8.0,35,0.00,,,0.00,VWS V14.01,2013-02-25 23:08:00,
2013-02-25 18:14:00,46.0,20.6,29.97,NE,50,2.0,8.0,36,0.00,,,0.00,VWS V14.01,2013-02-25 23:14:00,
2013-02-25 18:19:00,45.7,20.3,29.97,ENE,74,2.0,8.0,36,0.00,,,0.00,VWS V14.01,2013-02-25 23:19:00,
2013-02-25 18:24:00,45.5,20.1,29.97,ENE,57,7.0,8.0,36,0.00,,,0.00,VWS V14.01,2013-02-25 23:24:00,
2013-02-25 18:29:00,45.2,20.5,29.97,NE,42,2.0,8.0,37,0.00,,,0.00,VWS V14.01,2013-02-25 23:29:00,
2013-02-25 18:34:00,45.1,21.0,29.97,NE,40,3.0,8.0,38,0.00,,,0.00,VWS V14.01,2013-02-25 23:34:00,
2013-02-25 18:39:00,44.8,21.4,29.97,NE,54,6.0,8.0,39,0.00,,,0.00,VWS V14.01,2013-02-25 23:39:00,
2013-02-25 18:44:00,44.5,21.7,29.97,East,85,5.0,8.0,40,0.00,,,0.00,VWS V14.01,2013-02-25 23:44:00,
2013-02-25 18:49:00,44.3,21.5,29.97,ENE,76,10.0,10.0,40,0.00,,,0.00,VWS V14.01,2013-02-25 23:49:00,
2013-02-25 18:54:00,44.2,22.0,29.95,NE,51,7.0,8.0,41,0.00,,,0.00,VWS V14.01,2013-02-25 23:54:00,
2013-02-25 18:59:00,43.9,21.7,29.95,ENE,62,7.0,8.0,41,0.00,,,0.00,VWS V14.01,2013-02-25 23:59:00,
2013-02-25 19:04:00,43.8,21.6,29.95,NE,43,7.0,8.0,41,0.00,,,0.00,VWS V14.01,2013-02-26 00:04:00,
2013-02-25 19:09:00,43.5,21.4,29.95,NE,54,6.0,8.0,41,0.00,,,0.00,VWS V14.01,2013-02-26 00:09:00,
2013-02-25 19:14:00,43.3,21.2,29.95,NE,55,8.0,8.0,41,0.00,,,0.00,VWS V14.01,2013-02-26 00:14:00,
2013-02-25 19:19:00,43.2,21.1,29.95,ENE,69,7.0,8.0,41,0.00,,,0.00,VWS V14.01,2013-02-26 00:19:00,
2013-02-25 19:24:00,43.1,21.0,29.94,ENE,71,5.0,8.0,41,0.00,,,0.00,VWS V14.01,2013-02-26 00:24:00,
2013-02-25 19:29:00,42.9,20.8,29.94,East,80,6.0,8.0,41,0.00,,,0.00,VWS V14.01,2013-02-26 00:29:00,
2013-02-25 19:34:00,42.8,20.8,29.94,NE,54,5.0,8.0,41,0.00,,,0.00,VWS V14.01,2013-02-26 00:34:00,
2013-02-25 19:39:00,42.6,21.1,29.94,NE,39,6.0,8.0,42,0.00,,,0.00,VWS V14.01,2013-02-26 00:39:00,
2013-02-25 19:44:00,42.5,20.5,29.94,East,95,5.0,8.0,41,0.00,,,0.00,VWS V14.01,2013-02-26 00:44:00,
2013-02-25 19:49:00,42.3,20.3,29.95,East,83,6.0,8.0,41,0.00,,,0.00,VWS V14.01,2013-02-26 00:49:00,
2013-02-25 19:54:00,42.3,20.9,29.95,ENE,57,5.0,8.0,42,0.00,,,0.00,VWS V14.01,2013-02-26 00:54:00,
2013-02-25 19:59:00,42.2,20.8,29.95,ENE,76,3.0,8.0,42,0.00,,,0.00,VWS V14.01,2013-02-26 00:59:00,
2013-02-25 20:04:00,42.1,20.7,29.94,ENE,77,4.0,8.0,42,0.00,,,0.00,VWS V14.01,2013-02-26 01:04:00,
2013-02-25 20:09:00,41.9,21.0,29.94,East,86,8.0,8.0,43,0.00,,,0.00,VWS V14.01,2013-02-26 01:09:00,
2013-02-25 20:14:00,41.8,21.0,29.94,East,95,5.0,8.0,43,0.00,,,0.00,VWS V14.01,2013-02-26 01:14:00,
2013-02-25 20:19:00,41.6,20.8,29.94,ENE,74,8.0,8.0,43,0.00,,,0.00,VWS V14.01,2013-02-26 01:19:00,
2013-02-25 20:24:00,41.6,20.8,29.94,East,86,6.0,8.0,43,0.00,,,0.00,VWS V14.01,2013-02-26 01:24:00,
2013-02-25 20:29:00,41.5,20.7,29.94,ENE,73,13.0,13.0,43,0.00,,,0.00,VWS V14.01,2013-02-26 01:29:00,
2013-02-25 20:34:00,41.5,20.7,29.95,East,82,11.0,11.0,43,0.00,,,0.00,VWS V14.01,2013-02-26 01:34:00,
2013-02-25 20:39:00,41.3,20.5,29.95,ENE,73,10.0,10.0,43,0.00,,,0.00,VWS V14.01,2013-02-26 01:39:00,
2013-02-25 20:45:00,41.3,21.0,29.95,NE,55,6.0,8.0,44,0.00,,,0.00,VWS V14.01,2013-02-26 01:45:00,
2013-02-25 20:50:00,41.2,20.4,29.94,ENE,76,5.0,8.0,43,0.00,,,0.00,VWS V14.01,2013-02-26 01:50:00,
2013-02-25 20:55:00,41.1,20.9,29.94,ENE,77,4.0,8.0,44,0.00,,,0.00,VWS V14.01,2013-02-26 01:55:00,
2013-02-25 21:00:00,40.9,20.7,29.94,East,93,6.0,8.0,44,0.00,,,0.00,VWS V14.01,2013-02-26 02:00:00,
2013-02-25 21:05:00,40.8,20.6,29.94,East,83,7.0,8.0,44,0.00,,,0.00,VWS V14.01,2013-02-26 02:05:00,
2013-02-25 21:10:00,40.6,20.9,29.94,ENE,74,4.0,8.0,45,0.00,,,0.00,VWS V14.01,2013-02-26 02:10:00,
2013-02-25 21:15:00,40.5,20.9,29.94,East,92,8.0,8.0,45,0.00,,,0.00,VWS V14.01,2013-02-26 02:15:00,
2013-02-25 21:20:00,40.5,20.9,29.94,ENE,71,5.0,8.0,45,0.00,,,0.00,VWS V14.01,2013-02-26 02:20:00,
2013-02-25 21:25:00,40.5,20.3,29.94,East,94,7.0,8.0,44,0.00,,,0.00,VWS V14.01,2013-02-26 02:25:00,
2013-02-25 21:30:00,40.5,20.9,29.94,ENE,62,10.0,10.0,45,0.00,,,0.00,VWS V14.01,2013-02-26 02:30:00,
2013-02-25 21:35:00,40.5,20.9,29.94,ENE,61,9.0,9.0,45,0.00,,,0.00,VWS V14.01,2013-02-26 02:35:00,
2013-02-25 21:40:00,40.5,20.9,29.94,ENE,57,10.0,10.0,45,0.00,,,0.00,VWS V14.01,2013-02-26 02:40:00,
2013-02-25 21:45:00,40.6,20.4,29.94,East,82,7.0,8.0,44,0.00,,,0.00,VWS V14.01,2013-02-26 02:45:00,
2013-02-25 21:50:00,40.6,20.4,29.95,ENE,75,5.0,8.0,44,0.00,,,0.00,VWS V14.01,2013-02-26 02:50:00,
2013-02-25 21:55:00,40.6,20.9,29.95,East,80,6.0,8.0,45,0.00,,,0.00,VWS V14.01,2013-02-26 02:55:00,
2013-02-25 22:00:00,40.6,20.9,29.95,ENE,76,3.0,8.0,45,0.00,,,0.00,VWS V14.01,2013-02-26 03:00:00,
2013-02-25 22:05:00,40.6,20.4,29.93,ENE,67,8.0,8.0,44,0.00,,,0.00,VWS V14.01,2013-02-26 03:05:00,
2013-02-25 22:10:00,40.8,20.6,29.93,ENE,74,8.0,8.0,44,0.00,,,0.00,VWS V14.01,2013-02-26 03:10:00,
2013-02-25 22:15:00,40.9,20.7,29.93,ENE,71,4.0,8.0,44,0.00,,,0.00,VWS V14.01,2013-02-26 03:15:00,
2013-02-25 22:20:00,40.9,20.7,29.92,East,89,9.0,9.0,44,0.00,,,0.00,VWS V14.01,2013-02-26 03:20:00,
2013-02-25 22:25:00,40.8,20.6,29.92,East,82,6.0,8.0,44,0.00,,,0.00,VWS V14.01,2013-02-26 03:25:00,
2013-02-25 22:30:00,40.8,21.1,29.92,ENE,76,5.0,8.0,45,0.00,,,0.00,VWS V14.01,2013-02-26 03:30:00,
2013-02-25 22:35:00,40.6,20.9,29.91,East,86,6.0,8.0,45,0.00,,,0.00,VWS V14.01,2013-02-26 03:35:00,
2013-02-25 22:40:00,40.6,20.9,29.91,ENE,77,7.0,8.0,45,0.00,,,0.00,VWS V14.01,2013-02-26 03:40:00,
2013-02-25 22:45:00,40.6,20.9,29.91,ENE,70,14.0,14.0,45,0.00,,,0.00,VWS V14.01,2013-02-26 03:45:00,
2013-02-25 22:50:00,40.5,20.9,29.90,East,85,3.0,8.0,45,0.00,,,0.00,VWS V14.01,2013-02-26 03:50:00,
2013-02-25 22:55:00,40.5,21.4,29.90,East,79,5.0,8.0,46,0.00,,,0.00,VWS V14.01,2013-02-26 03:55:00,
2013-02-25 23:00:00,40.3,21.2,29.90,ENE,69,4.0,8.0,46,0.00,,,0.00,VWS V14.01,2013-02-26 04:00:00,
2013-02-25 23:01:00,40.5,21.4,29.87,East,80,10.0,10.0,46,0.00,,,0.00,VWS V14.01,2013-02-26 04:01:00,
2013-02-25 23:06:00,40.3,21.2,29.90,East,80,3.0,8.0,46,0.00,,,0.00,VWS V14.01,2013-02-26 04:06:00,
2013-02-25 23:10:00,40.5,21.4,29.87,East,89,5.0,8.0,46,0.00,,,0.00,VWS V14.01,2013-02-26 04:10:00,
2013-02-25 23:11:00,40.3,21.2,29.90,ENE,61,8.0,8.0,46,0.00,,,0.00,VWS V14.01,2013-02-26 04:11:00,
2013-02-25 23:16:00,40.3,21.2,29.90,ENE,68,4.0,8.0,46,0.00,,,0.00,VWS V14.01,2013-02-26 04:16:00,
2013-02-25 23:20:00,40.5,20.9,29.85,East,89,8.0,8.0,45,0.00,,,0.00,VWS V14.01,2013-02-26 04:20:00,
2013-02-25 23:21:00,40.3,21.2,29.90,ENE,67,9.0,9.0,46,0.00,,,0.00,VWS V14.01,2013-02-26 04:21:00,
2013-02-25 23:26:00,40.3,21.2,29.90,East,79,8.0,8.0,46,0.00,,,0.00,VWS V14.01,2013-02-26 04:26:00,
2013-02-25 23:30:00,40.6,21.5,29.84,ESE,117,10.0,10.0,46,0.00,,,0.00,VWS V14.01,2013-02-26 04:30:00,
2013-02-25 23:31:00,40.3,21.2,29.90,East,80,10.0,10.0,46,0.00,,,0.00,VWS V14.01,2013-02-26 04:31:00,
2013-02-25 23:36:00,40.3,21.2,29.89,East,92,6.0,8.0,46,0.00,,,0.00,VWS V14.01,2013-02-26 04:36:00,
2013-02-25 23:40:00,40.6,21.5,29.84,ESE,109,11.0,11.0,46,0.00,,,0.00,VWS V14.01,2013-02-26 04:40:00,
2013-02-25 23:41:00,40.5,21.4,29.89,ENE,63,8.0,8.0,46,0.00,,,0.00,VWS V14.01,2013-02-26 04:41:00,
2013-02-25 23:46:00,40.5,21.4,29.89,ENE,71,8.0,8.0,46,0.00,,,0.00,VWS V14.01,2013-02-26 04:46:00,
2013-02-25 23:47:00,40.6,21.5,29.83,ENE,74,10.0,10.0,46,0.00,,,0.00,VWS V14.01,2013-02-26 04:47:00,
2013-02-25 23:50:00,40.6,21.5,29.83,ENE,74,9.0,9.0,46,0.00,,,0.00,VWS V14.01,2013-02-26 04:50:00,
2013-02-25 23:51:00,40.5,21.4,29.88,East,82,8.0,8.0,46,0.00,,,0.00,VWS V14.01,2013-02-26 04:51:00,
2013-02-25 23:52:00,40.6,21.5,29.83,ENE,65,11.0,11.0,46,0.00,,,0.00,VWS V14.01,2013-02-26 04:52:00,
2013-02-25 23:56:00,40.5,20.9,29.88,East,86,10.0,10.0,45,0.00,,,0.00,VWS V14.01,2013-02-26 04:56:00,
2013-02-25 23:57:00,40.8,21.6,29.83,ENE,71,10.0,10.0,46,0.00,,,0.00,VWS V14.01,2013-02-26 04:57:00,